| time (UTC) | temp F | wind direction | speed MPH | gust MPH | rain 1hr in | rain 24hr in | rain mn in | humidity % | barometer mb |
| 20260509150740 | 51 | 271 | 2.0 | 7.0 | 0.00 | 0.00 | 0.00 | 34 | 1023.5 |
| 20260509150238 | 52 | 355 | 3.0 | 7.0 | 0.00 | 0.00 | 0.00 | 37 | 1023.6 |
| 20260509145735 | 52 | 319 | 3.0 | 4.0 | 0.00 | 0.00 | 0.00 | 35 | 1023.6 |
| 20260509145234 | 51 | 62 | 3.0 | 3.0 | 0.00 | 0.00 | 0.00 | 32 | 1023.9 |
| 20260509144732 | 51 | 241 | 0.0 | 2.0 | 0.00 | 0.00 | 0.00 | 34 | 1023.9 |
| 20260509144228 | 50 | 331 | 3.0 | 6.0 | 0.00 | 0.00 | 0.00 | 38 | 1023.9 |
| 20260509143725 | 49 | 272 | 2.0 | 3.0 | 0.00 | 0.00 | 0.00 | 35 | 1024.0 |
| 20260509143222 | 49 | 232 | 4.0 | 4.0 | 0.00 | 0.00 | 0.00 | 34 | 1024.1 |
| 20260509142718 | 48 | 220 | 0.0 | 3.0 | 0.00 | 0.00 | 0.00 | 40 | 1024.0 |
| 20260509142215 | 48 | 295 | 1.0 | 2.0 | 0.00 | 0.00 | 0.00 | 39 | 1023.9 |
| 20260509141710 | 47 | 258 | 0.0 | 2.0 | 0.00 | 0.00 | 0.00 | 40 | 1023.6 |
| 20260509141208 | 47 | 282 | 2.0 | 3.0 | 0.00 | 0.00 | 0.00 | 42 | 1023.7 |
| 20260509140704 | 47 | 302 | 2.0 | 3.0 | 0.00 | 0.00 | 0.00 | 41 | 1023.9 |
| 20260509140202 | 46 | 264 | 0.0 | 1.0 | 0.00 | 0.00 | 0.00 | 42 | 1024.0 |
| 20260509135659 | 44 | 350 | 0.0 | 3.0 | 0.00 | 0.00 | 0.00 | 46 | 1024.1 |
| 20260509135157 | 41 | 278 | 0.0 | 0.0 | 0.00 | 0.00 | 0.00 | 47 | 1024.1 |
| 20260509134653 | 37 | 240 | 0.0 | 2.0 | 0.00 | 0.00 | 0.00 | 60 | 1023.9 |
| 20260509134151 | 38 | 235 | 1.0 | 2.0 | 0.00 | 0.00 | 0.00 | 60 | 1024.1 |
| 20260509133648 | 38 | 233 | 0.0 | 0.0 | 0.00 | 0.00 | 0.00 | 63 | 1023.9 |
| 20260509133145 | 38 | 118 | 3.0 | 3.0 | 0.00 | 0.00 | 0.00 | 53 | 1023.9 |
| 20260509132643 | 38 | 219 | 2.0 | 2.0 | 0.00 | 0.00 | 0.00 | 57 | 1023.9 |
| 20260509132141 | 38 | 213 | 2.0 | 3.0 | 0.00 | 0.00 | 0.00 | 60 | 1023.6 |
| 20260509131637 | 39 | 210 | 2.0 | 3.0 | 0.00 | 0.00 | 0.00 | 58 | 1023.6 |
| 20260509131134 | 40 | 206 | 2.0 | 3.0 | 0.00 | 0.00 | 0.00 | 55 | 1023.3 |
| 20260509130630 | 41 | 228 | 2.0 | 3.0 | 0.00 | 0.00 | 0.00 | 52 | 1023.6 |
| 20260509130126 | 41 | 244 | 2.0 | 4.0 | 0.00 | 0.00 | 0.00 | 51 | 1023.5 |
| 20260509125623 | 42 | 257 | 0.0 | 2.0 | 0.00 | 0.00 | 0.00 | 50 | 1023.3 |
| 20260509125120 | 43 | 237 | 2.0 | 4.0 | 0.00 | 0.00 | 0.00 | 48 | 1023.1 |
| 20260509124616 | 44 | 248 | 1.0 | 2.0 | 0.00 | 0.00 | 0.00 | 44 | 1023.1 |
| 20260509124114 | 44 | 231 | 4.0 | 4.0 | 0.00 | 0.00 | 0.00 | 45 | 1023.2 |
| 20260509123612 | 44 | 246 | 6.0 | 8.0 | 0.00 | 0.00 | 0.00 | 44 | 1022.8 |
| 20260509123108 | 44 | 270 | 6.0 | 8.0 | 0.00 | 0.00 | 0.00 | 44 | 1022.8 |
| 20260509122604 | 44 | 269 | 7.0 | 16.0 | 0.00 | 0.00 | 0.00 | 43 | 1022.7 |
| 20260509122102 | 44 | 261 | 6.0 | 16.0 | 0.00 | 0.00 | 0.00 | 44 | 1022.7 |
| 20260509121558 | 44 | 249 | 8.0 | 14.0 | 0.00 | 0.00 | 0.00 | 43 | 1022.3 |
| 20260509121055 | 44 | 259 | 15.0 | 16.0 | 0.00 | 0.00 | 0.00 | 45 | 1022.4 |
| 20260509120553 | 44 | 250 | 13.0 | 18.0 | 0.00 | 0.00 | 0.00 | 45 | 1022.3 |
| 20260509120052 | 44 | 317 | 7.0 | 9.0 | 0.00 | 0.00 | 0.00 | 46 | 1022.4 |
| 20260509115548 | 44 | 270 | 9.0 | 14.0 | 0.00 | 0.00 | 0.00 | 45 | 1022.5 |
| 20260509115046 | 44 | 289 | 7.0 | 10.0 | 0.00 | 0.00 | 0.00 | 47 | 1022.4 |
| 20260509114544 | 45 | 252 | 7.0 | 9.0 | 0.00 | 0.00 | 0.00 | 45 | 1022.7 |
| 20260509114042 | 44 | 286 | 3.0 | 13.0 | 0.00 | 0.00 | 0.00 | 47 | 1022.7 |
| 20260509113540 | 44 | 260 | 4.0 | 9.0 | 0.00 | 0.00 | 0.00 | 48 | 1022.7 |
| 20260509113038 | 44 | 206 | 1.0 | 14.0 | 0.00 | 0.00 | 0.00 | 48 | 1022.7 |
| 20260509112534 | 44 | 215 | 2.0 | 10.0 | 0.00 | 0.00 | 0.00 | 47 | 1022.7 |
| 20260509112031 | 45 | 258 | 6.0 | 13.0 | 0.00 | 0.00 | 0.00 | 47 | 1022.5 |
| 20260509111528 | 45 | 253 | 5.0 | 13.0 | 0.00 | 0.00 | 0.00 | 47 | 1022.7 |
| 20260509111025 | 45 | 300 | 6.0 | 16.0 | 0.00 | 0.00 | 0.00 | 47 | 1022.8 |
| 20260509110522 | 45 | 249 | 10.0 | 14.0 | 0.00 | 0.00 | 0.00 | 47 | 1022.5 |
| 20260509110019 | 44 | 247 | 7.0 | 11.0 | 0.00 | 0.00 | 0.00 | 47 | 1022.5 |
| 20260509105517 | 45 | 259 | 6.0 | 11.0 | 0.00 | 0.00 | 0.00 | 47 | 1022.4 |
| 20260509105015 | 45 | 277 | 3.0 | 8.0 | 0.00 | 0.00 | 0.00 | 47 | 1022.7 |
| 20260509104511 | 45 | 225 | 5.0 | 14.0 | 0.00 | 0.00 | 0.00 | 47 | 1022.5 |
| 20260509104008 | 45 | 329 | 4.0 | 9.0 | 0.00 | 0.00 | 0.00 | 48 | 1022.7 |
| 20260509103506 | 45 | 231 | 2.0 | 9.0 | 0.00 | 0.00 | 0.00 | 48 | 1022.5 |
| 20260509103004 | 45 | 259 | 2.0 | 9.0 | 0.00 | 0.00 | 0.00 | 48 | 1022.7 |
| 20260509102502 | 45 | 299 | 6.0 | 10.0 | 0.00 | 0.00 | 0.00 | 48 | 1022.5 |
| 20260509101958 | 45 | 269 | 4.0 | 11.0 | 0.00 | 0.00 | 0.00 | 47 | 1022.5 |
| 20260509101454 | 45 | 242 | 4.0 | 11.0 | 0.00 | 0.00 | 0.00 | 48 | 1022.5 |
| 20260509100951 | 45 | 262 | 3.0 | 8.0 | 0.00 | 0.00 | 0.00 | 48 | 1022.5 |
| 20260509100448 | 45 | 238 | 5.0 | 11.0 | 0.00 | 0.00 | 0.00 | 48 | 1022.7 |
| 20260509095945 | 45 | 231 | 5.0 | 6.0 | 0.00 | 0.00 | 0.00 | 48 | 1022.4 |
| 20260509095442 | 45 | 246 | 4.0 | 6.0 | 0.00 | 0.00 | 0.00 | 48 | 1022.5 |
| 20260509094939 | 45 | 291 | 2.0 | 8.0 | 0.00 | 0.00 | 0.00 | 47 | 1022.7 |
| 20260509094435 | 45 | 264 | 3.0 | 13.0 | 0.00 | 0.00 | 0.00 | 47 | 1022.7 |
| 20260509093933 | 45 | 294 | 9.0 | 13.0 | 0.00 | 0.00 | 0.00 | 47 | 1022.5 |
| 20260509093430 | 45 | 289 | 4.0 | 17.0 | 0.00 | 0.00 | 0.00 | 47 | 1022.4 |
| 20260509092928 | 45 | 283 | 4.0 | 7.0 | 0.00 | 0.00 | 0.00 | 47 | 1022.5 |
| 20260509092426 | 46 | 244 | 6.0 | 8.0 | 0.00 | 0.00 | 0.00 | 47 | 1022.5 |
| 20260509091925 | 46 | 230 | 3.0 | 9.0 | 0.00 | 0.00 | 0.00 | 47 | 1022.7 |
| 20260509091421 | 45 | 266 | 4.0 | 11.0 | 0.00 | 0.00 | 0.00 | 47 | 1022.5 |
| 20260509090918 | 46 | 293 | 2.0 | 4.0 | 0.00 | 0.00 | 0.00 | 47 | 1022.4 |
| 20260509090415 | 46 | 257 | 3.0 | 11.0 | 0.00 | 0.00 | 0.00 | 46 | 1022.3 |
| 20260509085913 | 46 | 211 | 4.0 | 7.0 | 0.00 | 0.00 | 0.00 | 47 | 1022.4 |
| 20260509085410 | 46 | 233 | 4.0 | 7.0 | 0.00 | 0.00 | 0.00 | 47 | 1022.5 |
| 20260509084906 | 46 | 256 | 5.0 | 11.0 | 0.00 | 0.00 | 0.00 | 46 | 1022.3 |
| 20260509084403 | 46 | 263 | 3.0 | 8.0 | 0.00 | 0.00 | 0.00 | 47 | 1022.3 |
| 20260509083901 | 46 | 242 | 4.0 | 8.0 | 0.00 | 0.00 | 0.00 | 47 | 1022.5 |
| 20260509083357 | 46 | 256 | 4.0 | 10.0 | 0.00 | 0.00 | 0.00 | 46 | 1022.7 |
| 20260509082854 | 46 | 251 | 7.0 | 9.0 | 0.00 | 0.00 | 0.00 | 47 | 1022.5 |
| 20260509082351 | 46 | 211 | 4.0 | 8.0 | 0.00 | 0.00 | 0.00 | 46 | 1022.4 |
| 20260509081848 | 46 | 262 | 3.0 | 7.0 | 0.00 | 0.00 | 0.00 | 46 | 1022.5 |
| 20260509081345 | 47 | 247 | 2.0 | 7.0 | 0.00 | 0.00 | 0.00 | 47 | 1022.5 |
| 20260509080843 | 47 | 267 | 2.0 | 7.0 | 0.00 | 0.00 | 0.00 | 47 | 1022.5 |
| 20260509080341 | 47 | 225 | 2.0 | 3.0 | 0.00 | 0.00 | 0.00 | 46 | 1022.4 |
| 20260509075839 | 46 | 244 | 5.0 | 8.0 | 0.00 | 0.00 | 0.00 | 45 | 1022.5 |
| 20260509075335 | 47 | 256 | 1.0 | 9.0 | 0.00 | 0.00 | 0.00 | 45 | 1022.7 |
| 20260509074832 | 47 | 266 | 2.0 | 8.0 | 0.00 | 0.00 | 0.00 | 44 | 1022.8 |
| 20260509074330 | 48 | 261 | 2.0 | 8.0 | 0.00 | 0.00 | 0.00 | 44 | 1022.8 |
| 20260509073826 | 48 | 311 | 3.0 | 15.0 | 0.00 | 0.00 | 0.00 | 43 | 1022.8 |
| 20260509073323 | 48 | 265 | 5.0 | 13.0 | 0.00 | 0.00 | 0.00 | 43 | 1022.9 |
| 20260509072820 | 49 | 241 | 4.0 | 6.0 | 0.00 | 0.00 | 0.00 | 43 | 1022.7 |
| 20260509072316 | 48 | 272 | 8.0 | 11.0 | 0.00 | 0.00 | 0.00 | 42 | 1022.8 |
| 20260509071813 | 48 | 294 | 3.0 | 9.0 | 0.00 | 0.00 | 0.00 | 42 | 1022.8 |
| 20260509071310 | 48 | 314 | 5.0 | 7.0 | 0.00 | 0.00 | 0.00 | 44 | 1022.8 |
| 20260509070807 | 46 | 287 | 5.0 | 10.0 | 0.00 | 0.00 | 0.00 | 45 | 1022.7 |
| 20260509070304 | 44 | 235 | 1.0 | 4.0 | 0.00 | 0.00 | 0.00 | 51 | 1022.4 |
| 20260509065800 | 44 | 215 | 3.0 | 3.0 | 0.00 | 0.00 | 0.00 | 54 | 1022.5 |
| 20260509065256 | 43 | 219 | 4.0 | 7.0 | 0.00 | 0.00 | 0.00 | 50 | 1022.7 |
| 20260509064752 | 43 | 219 | 3.0 | 4.0 | 0.00 | 0.00 | 0.00 | 60 | 1022.9 |
| 20260509064250 | 43 | 216 | 2.0 | 6.0 | 0.00 | 0.00 | 0.00 | 56 | 1022.5 |
| 20260509063747 | 44 | 206 | 3.0 | 4.0 | 0.00 | 0.00 | 0.00 | 55 | 1022.8 |
| 20260509063243 | 44 | 207 | 4.0 | 4.0 | 0.00 | 0.00 | 0.00 | 61 | 1022.9 |
| 20260509062741 | 43 | 218 | 4.0 | 4.0 | 0.00 | 0.00 | 0.00 | 59 | 1023.1 |
| 20260509062238 | 43 | 209 | 3.0 | 3.0 | 0.00 | 0.00 | 0.00 | 58 | 1022.9 |
| 20260509061735 | 44 | 214 | 3.0 | 4.0 | 0.00 | 0.00 | 0.00 | 54 | 1023.3 |
| 20260509061233 | 43 | 211 | 4.0 | 6.0 | 0.00 | 0.00 | 0.00 | 54 | 1023.1 |
| 20260509060730 | 45 | 206 | 5.0 | 6.0 | 0.00 | 0.00 | 0.00 | 52 | 1022.9 |
| 20260509060226 | 45 | 203 | 3.0 | 4.0 | 0.00 | 0.00 | 0.00 | 52 | 1022.9 |
| 20260509055722 | 45 | 188 | 3.0 | 4.0 | 0.00 | 0.00 | 0.00 | 52 | 1022.7 |
| 20260509055218 | 44 | 213 | 3.0 | 6.0 | 0.00 | 0.00 | 0.00 | 56 | 1023.1 |
| 20260509054714 | 43 | 199 | 3.0 | 3.0 | 0.00 | 0.00 | 0.00 | 59 | 1023.2 |
| 20260509054212 | 44 | 226 | 5.0 | 7.0 | 0.00 | 0.00 | 0.00 | 52 | 1023.3 |
| 20260509053710 | 43 | 191 | 3.0 | 4.0 | 0.00 | 0.00 | 0.00 | 55 | 1023.1 |
| 20260509053207 | 43 | 191 | 4.0 | 4.0 | 0.00 | 0.00 | 0.00 | 55 | 1023.2 |
| 20260509052705 | 44 | 212 | 4.0 | 4.0 | 0.00 | 0.00 | 0.00 | 54 | 1023.2 |
| 20260509052202 | 44 | 190 | 3.0 | 3.0 | 0.00 | 0.00 | 0.00 | 54 | 1023.3 |
| 20260509051659 | 44 | 222 | 3.0 | 4.0 | 0.00 | 0.00 | 0.00 | 56 | 1023.6 |
| 20260509051157 | 44 | 196 | 2.0 | 4.0 | 0.00 | 0.00 | 0.00 | 54 | 1023.6 |
| 20260509050654 | 44 | 244 | 3.0 | 4.0 | 0.00 | 0.00 | 0.00 | 53 | 1023.9 |
| 20260509050150 | 46 | 209 | 2.0 | 3.0 | 0.00 | 0.00 | 0.00 | 52 | 1023.7 |
| 20260509045648 | 46 | 223 | 3.0 | 6.0 | 0.00 | 0.00 | 0.00 | 54 | 1023.7 |
| 20260509045144 | 46 | 219 | 4.0 | 4.0 | 0.00 | 0.00 | 0.00 | 53 | 1023.6 |
| 20260509044641 | 46 | 220 | 4.0 | 6.0 | 0.00 | 0.00 | 0.00 | 50 | 1023.7 |
| 20260509044139 | 44 | 244 | 4.0 | 7.0 | 0.00 | 0.00 | 0.00 | 55 | 1023.7 |
| 20260509043636 | 41 | 194 | 4.0 | 4.0 | 0.00 | 0.00 | 0.00 | 70 | 1023.9 |
| 20260509043131 | 41 | 212 | 3.0 | 3.0 | 0.00 | 0.00 | 0.00 | 73 | 1024.0 |
| 20260509042628 | 41 | 210 | 2.0 | 3.0 | 0.00 | 0.00 | 0.00 | 72 | 1024.3 |
| 20260509042124 | 42 | 218 | 2.0 | 3.0 | 0.00 | 0.00 | 0.00 | 73 | 1024.3 |
| 20260509041621 | 42 | 210 | 3.0 | 3.0 | 0.00 | 0.00 | 0.00 | 71 | 1024.3 |
| 20260509041118 | 43 | 215 | 2.0 | 3.0 | 0.00 | 0.00 | 0.00 | 70 | 1024.1 |
| 20260509040617 | 43 | 212 | 2.0 | 3.0 | 0.00 | 0.00 | 0.00 | 69 | 1024.1 |
| 20260509040113 | 44 | 235 | 0.0 | 1.0 | 0.00 | 0.00 | 0.00 | 68 | 1024.1 |
| 20260509035610 | 45 | 262 | 2.0 | 3.0 | 0.00 | 0.00 | 0.00 | 65 | 1024.0 |
| 20260509035107 | 44 | 237 | 1.0 | 3.0 | 0.00 | 0.00 | 0.00 | 70 | 1024.3 |
| 20260509034605 | 45 | 238 | 1.0 | 6.0 | 0.00 | 0.00 | 0.00 | 70 | 1024.3 |
| 20260509034101 | 44 | 227 | 4.0 | 8.0 | 0.00 | 0.00 | 0.00 | 70 | 1024.5 |
| 20260509033558 | 45 | 227 | 2.0 | 3.0 | 0.00 | 0.00 | 0.00 | 71 | 1024.0 |
| 20260509033055 | 44 | 205 | 4.0 | 7.0 | 0.00 | 0.00 | 0.00 | 72 | 1024.4 |
| 20260509032553 | 44 | 238 | 2.0 | 3.0 | 0.00 | 0.00 | 0.00 | 73 | 1024.3 |
| 20260509032049 | 44 | 249 | 3.0 | 8.0 | 0.00 | 0.00 | 0.00 | 72 | 1024.1 |
| 20260509031547 | 44 | 178 | 7.0 | 8.0 | 0.00 | 0.00 | 0.00 | 71 | 1024.0 |
| 20260509031044 | 44 | 190 | 2.0 | 6.0 | 0.00 | 0.00 | 0.00 | 73 | 1024.6 |
| 20260509030543 | 44 | 230 | 3.0 | 4.0 | 0.00 | 0.00 | 0.00 | 72 | 1024.3 |
| 20260509030039 | 44 | 221 | 4.0 | 6.0 | 0.00 | 0.00 | 0.00 | 72 | 1024.3 |
| 20260509025535 | 45 | 221 | 2.0 | 6.0 | 0.00 | 0.00 | 0.00 | 71 | 1024.3 |
| 20260509025031 | 45 | 236 | 2.0 | 3.0 | 0.00 | 0.00 | 0.00 | 72 | 1023.7 |
| 20260509024527 | 44 | 218 | 3.0 | 6.0 | 0.00 | 0.00 | 0.00 | 72 | 1023.9 |
| 20260509024023 | 43 | 188 | 3.0 | 4.0 | 0.00 | 0.00 | 0.00 | 74 | 1023.7 |
| 20260509023521 | 43 | 227 | 2.0 | 3.0 | 0.00 | 0.00 | 0.00 | 74 | 1023.6 |
| 20260509023018 | 45 | 250 | 2.0 | 3.0 | 0.00 | 0.00 | 0.00 | 70 | 1023.7 |
| 20260509022514 | 45 | 230 | 4.0 | 6.0 | 0.00 | 0.00 | 0.00 | 69 | 1023.5 |
| 20260509022012 | 44 | 221 | 2.0 | 2.0 | 0.00 | 0.00 | 0.00 | 73 | 1023.5 |
| 20260509021509 | 44 | 238 | 3.0 | 4.0 | 0.00 | 0.00 | 0.00 | 72 | 1023.5 |
| 20260509021006 | 45 | 194 | 3.0 | 7.0 | 0.00 | 0.00 | 0.00 | 70 | 1023.5 |
| 20260509020504 | 46 | 212 | 5.0 | 8.0 | 0.00 | 0.00 | 0.00 | 68 | 1023.7 |
| 20260509020000 | 45 | 193 | 4.0 | 7.0 | 0.00 | 0.00 | 0.00 | 69 | 1023.6 |
| 20260509015459 | 45 | 185 | 4.0 | 6.0 | 0.00 | 0.00 | 0.00 | 70 | 1023.6 |
| 20260509014956 | 45 | 225 | 3.0 | 6.0 | 0.00 | 0.00 | 0.00 | 70 | 1023.6 |
| 20260509014453 | 45 | 214 | 5.0 | 6.0 | 0.00 | 0.00 | 0.00 | 70 | 1023.5 |
| 20260509013949 | 46 | 240 | 1.0 | 2.0 | 0.00 | 0.00 | 0.00 | 70 | 1023.7 |
| 20260509013446 | 46 | 209 | 4.0 | 6.0 | 0.00 | 0.00 | 0.00 | 72 | 1023.2 |
| 20260509012936 | 46 | 223 | 0.0 | 0.0 | 0.00 | 0.00 | 0.00 | 70 | 1023.3 |
| 20260509012433 | 47 | 225 | 2.0 | 3.0 | 0.00 | 0.00 | 0.00 | 67 | 1023.5 |
| 20260509011930 | 47 | 240 | 0.0 | 2.0 | 0.00 | 0.00 | 0.00 | 68 | 1023.3 |
| 20260509011427 | 47 | 238 | 1.0 | 2.0 | 0.00 | 0.00 | 0.00 | 69 | 1023.1 |
| 20260509010925 | 47 | 253 | 2.0 | 6.0 | 0.00 | 0.00 | 0.00 | 68 | 1023.3 |
| 20260509010422 | 47 | 142 | 3.0 | 3.0 | 0.00 | 0.00 | 0.00 | 67 | 1023.2 |
| 20260509005919 | 48 | 209 | 2.0 | 3.0 | 0.00 | 0.00 | 0.00 | 66 | 1023.5 |
| 20260509005417 | 47 | 228 | 0.0 | 3.0 | 0.00 | 0.00 | 0.00 | 67 | 1023.3 |
| 20260509004917 | 47 | 211 | 2.0 | 6.0 | 0.00 | 0.00 | 0.00 | 67 | 1022.9 |
| 20260509004414 | 47 | 167 | 2.0 | 4.0 | 0.00 | 0.00 | 0.00 | 66 | 1023.2 |
| 20260509003912 | 47 | 218 | 2.0 | 4.0 | 0.00 | 0.00 | 0.00 | 68 | 1023.1 |
| 20260509003409 | 48 | 249 | 1.0 | 1.0 | 0.00 | 0.00 | 0.00 | 66 | 1023.2 |
| 20260509002906 | 48 | 191 | 2.0 | 3.0 | 0.00 | 0.00 | 0.00 | 66 | 1023.2 |
| 20260509002404 | 48 | 254 | 0.0 | 1.0 | 0.00 | 0.00 | 0.00 | 65 | 1023.1 |
| 20260509001901 | 49 | 88 | 2.0 | 4.0 | 0.00 | 0.00 | 0.00 | 65 | 1023.1 |
| 20260509001356 | 48 | 295 | 1.0 | 3.0 | 0.00 | 0.00 | 0.00 | 64 | 1023.3 |
| 20260509000854 | 48 | 187 | 3.0 | 3.0 | 0.00 | 0.00 | 0.00 | 65 | 1023.3 |
| 20260509000352 | 48 | 176 | 3.0 | 3.0 | 0.00 | 0.00 | 0.00 | 65 | 1023.3 |
| 20260508235848 | 49 | 242 | 2.0 | 3.0 | 0.00 | 0.00 | 0.00 | 65 | 1023.5 |
| 20260508235345 | 49 | 320 | 1.0 | 2.0 | 0.00 | 0.00 | 0.00 | 63 | 1023.5 |
| 20260508234842 | 49 | 16 | 0.0 | 2.0 | 0.00 | 0.00 | 0.00 | 64 | 1023.2 |
| 20260508234338 | 50 | 312 | 1.0 | 2.0 | 0.00 | 0.00 | 0.00 | 62 | 1023.3 |
| 20260508233837 | 50 | 45 | 4.0 | 6.0 | 0.00 | 0.00 | 0.00 | 61 | 1023.2 |
| 20260508233336 | 51 | 24 | 2.0 | 3.0 | 0.00 | 0.00 | 0.00 | 61 | 1022.9 |
| 20260508232832 | 52 | 262 | 2.0 | 3.0 | 0.00 | 0.00 | 0.00 | 59 | 1023.2 |
| 20260508232329 | 51 | 235 | 1.0 | 4.0 | 0.00 | 0.00 | 0.00 | 61 | 1023.3 |
| 20260508231827 | 51 | 76 | 0.0 | 7.0 | 0.00 | 0.00 | 0.00 | 61 | 1023.1 |
| 20260508231323 | 51 | 138 | 2.0 | 6.0 | 0.00 | 0.00 | 0.00 | 59 | 1022.9 |
| 20260508230820 | 51 | 341 | 1.0 | 6.0 | 0.00 | 0.00 | 0.00 | 58 | 1022.9 |
| 20260508230316 | 50 | 148 | 5.0 | 7.0 | 0.00 | 0.00 | 0.00 | 59 | 1023.2 |
| 20260508225814 | 51 | 29 | 3.0 | 7.0 | 0.00 | 0.00 | 0.00 | 60 | 1023.3 |
| 20260508225310 | 51 | 323 | 0.0 | 2.0 | 0.00 | 0.00 | 0.00 | 59 | 1023.2 |
| 20260508224809 | 51 | 344 | 5.0 | 8.0 | 0.00 | 0.00 | 0.00 | 59 | 1023.1 |
| 20260508224306 | 50 | 233 | 4.0 | 8.0 | 0.00 | 0.00 | 0.00 | 59 | 1023.1 |
| 20260508223803 | 52 | 179 | 3.0 | 6.0 | 0.00 | 0.00 | 0.00 | 57 | 1022.9 |
| 20260508223300 | 52 | 95 | 3.0 | 7.0 | 0.00 | 0.00 | 0.00 | 57 | 1023.2 |
| 20260508222758 | 51 | 242 | 0.0 | 4.0 | 0.00 | 0.00 | 0.00 | 58 | 1023.1 |
| 20260508222255 | 51 | 38 | 2.0 | 7.0 | 0.00 | 0.00 | 0.00 | 59 | 1023.5 |
| 20260508221752 | 52 | 242 | 1.0 | 6.0 | 0.00 | 0.00 | 0.00 | 57 | 1023.1 |
| 20260508221247 | 53 | 112 | 4.0 | 7.0 | 0.00 | 0.00 | 0.00 | 54 | 1023.1 |
| 20260508220743 | 51 | 18 | 2.0 | 4.0 | 0.00 | 0.00 | 0.00 | 59 | 1023.1 |
| 20260508220240 | 51 | 146 | 4.0 | 10.0 | 0.00 | 0.00 | 0.00 | 59 | 1023.1 |
| 20260508215736 | 51 | 88 | 6.0 | 9.0 | 0.00 | 0.00 | 0.00 | 58 | 1023.2 |
| 20260508215233 | 51 | 311 | 3.0 | 7.0 | 0.00 | 0.00 | 0.00 | 59 | 1023.2 |
| 20260508214730 | 51 | 60 | 3.0 | 3.0 | 0.00 | 0.00 | 0.00 | 58 | 1023.1 |
| 20260508214227 | 50 | 272 | 4.0 | 4.0 | 0.00 | 0.00 | 0.00 | 60 | 1023.3 |
| 20260508213723 | 50 | 19 | 5.0 | 7.0 | 0.00 | 0.00 | 0.00 | 61 | 1023.3 |
| 20260508213220 | 50 | 158 | 1.0 | 3.0 | 0.00 | 0.00 | 0.00 | 60 | 1023.3 |
| 20260508212717 | 51 | 323 | 2.0 | 2.0 | 0.00 | 0.00 | 0.00 | 60 | 1023.1 |
| 20260508212213 | 50 | 333 | 3.0 | 4.0 | 0.00 | 0.00 | 0.00 | 60 | 1022.8 |
| 20260508211709 | 50 | 17 | 0.0 | 2.0 | 0.00 | 0.00 | 0.00 | 61 | 1023.2 |
| 20260508211205 | 50 | 46 | 3.0 | 6.0 | 0.00 | 0.00 | 0.00 | 61 | 1023.1 |
| 20260508210702 | 50 | 26 | 2.0 | 6.0 | 0.00 | 0.00 | 0.00 | 61 | 1023.5 |
| 20260508210200 | 51 | 26 | 2.0 | 4.0 | 0.00 | 0.00 | 0.00 | 60 | 1023.3 |
| 20260508205656 | 49 | 241 | 3.0 | 3.0 | 0.00 | 0.00 | 0.00 | 62 | 1023.2 |
| 20260508205153 | 50 | 98 | 5.0 | 8.0 | 0.00 | 0.00 | 0.00 | 61 | 1023.2 |
| 20260508204649 | 50 | 358 | 2.0 | 7.0 | 0.00 | 0.00 | 0.00 | 62 | 1023.5 |
| 20260508204145 | 50 | 204 | 2.0 | 8.0 | 0.00 | 0.00 | 0.00 | 61 | 1023.3 |
| 20260508203641 | 50 | 174 | 6.0 | 9.0 | 0.00 | 0.00 | 0.00 | 62 | 1023.3 |
| 20260508203138 | 53 | 50 | 4.0 | 8.0 | 0.00 | 0.00 | 0.00 | 60 | 1023.5 |
| 20260508202634 | 51 | 311 | 2.0 | 8.0 | 0.00 | 0.00 | 0.00 | 59 | 1023.5 |
| 20260508202131 | 52 | 267 | 1.0 | 8.0 | 0.00 | 0.00 | 0.00 | 59 | 1023.6 |
| 20260508201628 | 49 | 268 | 0.0 | 6.0 | 0.00 | 0.00 | 0.00 | 62 | 1023.5 |
| 20260508201125 | 50 | 104 | 3.0 | 7.0 | 0.00 | 0.00 | 0.00 | 61 | 1023.5 |
| 20260508200621 | 52 | 15 | 2.0 | 9.0 | 0.00 | 0.00 | 0.00 | 60 | 1023.6 |
| 20260508200117 | 53 | 57 | 5.0 | 8.0 | 0.00 | 0.00 | 0.00 | 57 | 1023.3 |
| 20260508195614 | 50 | 151 | 4.0 | 6.0 | 0.00 | 0.00 | 0.00 | 59 | 1023.6 |
| 20260508195111 | 49 | 116 | 3.0 | 7.0 | 0.00 | 0.00 | 0.00 | 62 | 1023.6 |
| 20260508194607 | 50 | 169 | 4.0 | 7.0 | 0.00 | 0.00 | 0.00 | 62 | 1023.9 |
| 20260508194104 | 51 | 1 | 2.0 | 9.0 | 0.00 | 0.00 | 0.00 | 61 | 1023.7 |
| 20260508193601 | 51 | 309 | 1.0 | 7.0 | 0.00 | 0.00 | 0.00 | 58 | 1023.6 |
| 20260508193058 | 49 | 277 | 3.0 | 4.0 | 0.00 | 0.00 | 0.00 | 59 | 1023.9 |
| 20260508192554 | 50 | 359 | 6.0 | 9.0 | 0.00 | 0.00 | 0.00 | 61 | 1023.6 |
| 20260508192052 | 49 | 88 | 6.0 | 8.0 | 0.00 | 0.00 | 0.00 | 62 | 1023.7 |
| 20260508191548 | 48 | 18 | 2.0 | 8.0 | 0.00 | 0.00 | 0.00 | 64 | 1023.5 |
| 20260508191045 | 49 | 325 | 5.0 | 7.0 | 0.00 | 0.00 | 0.00 | 64 | 1023.7 |
| 20260508190542 | 49 | 298 | 2.0 | 7.0 | 0.00 | 0.00 | 0.00 | 62 | 1023.9 |
| 20260508190038 | 50 | 95 | 3.0 | 8.0 | 0.00 | 0.00 | 0.00 | 57 | 1023.7 |
| 20260508185536 | 49 | 333 | 3.0 | 10.0 | 0.00 | 0.00 | 0.00 | 61 | 1023.9 |
| 20260508185033 | 48 | 25 | 2.0 | 7.0 | 0.00 | 0.00 | 0.00 | 62 | 1023.9 |
| 20260508184531 | 50 | 353 | 3.0 | 8.0 | 0.00 | 0.00 | 0.00 | 61 | 1023.9 |
| 20260508184027 | 50 | 357 | 2.0 | 6.0 | 0.00 | 0.00 | 0.00 | 62 | 1023.5 |
| 20260508183524 | 48 | 170 | 6.0 | 9.0 | 0.00 | 0.00 | 0.00 | 64 | 1023.9 |
| 20260508183020 | 49 | 316 | 5.0 | 6.0 | 0.00 | 0.00 | 0.00 | 60 | 1024.0 |
| 20260508182517 | 47 | 265 | 1.0 | 6.0 | 0.00 | 0.00 | 0.00 | 66 | 1023.9 |
| 20260508182013 | 49 | 357 | 4.0 | 10.0 | 0.00 | 0.00 | 0.00 | 65 | 1023.6 |
| 20260508181508 | 50 | 250 | 2.0 | 6.0 | 0.00 | 0.00 | 0.00 | 63 | 1023.7 |
| 20260508181007 | 48 | 317 | 1.0 | 7.0 | 0.00 | 0.00 | 0.00 | 67 | 1024.0 |
| 20260508180503 | 49 | 16 | 4.0 | 9.0 | 0.00 | 0.00 | 0.00 | 65 | 1023.7 |
| 20260508175959 | 49 | 316 | 5.0 | 10.0 | 0.00 | 0.00 | 0.00 | 63 | 1023.7 |
| 20260508175455 | 48 | 338 | 2.0 | 4.0 | 0.00 | 0.00 | 0.00 | 65 | 1023.9 |
| 20260508174953 | 48 | 0 | 2.0 | 9.0 | 0.00 | 0.00 | 0.00 | 66 | 1024.0 |
| 20260508174451 | 48 | 23 | 6.0 | 10.0 | 0.00 | 0.00 | 0.00 | 65 | 1023.9 |
| 20260508173947 | 50 | 313 | 6.0 | 9.0 | 0.00 | 0.00 | 0.00 | 61 | 1023.9 |
| 20260508173445 | 51 | 322 | 5.0 | 8.0 | 0.00 | 0.00 | 0.00 | 58 | 1023.7 |
| 20260508172940 | 52 | 335 | 8.0 | 10.0 | 0.00 | 0.00 | 0.00 | 39 | 1023.5 |
| 20260508172438 | 53 | 343 | 8.0 | 10.0 | 0.00 | 0.00 | 0.00 | 44 | 1023.9 |
| 20260508171934 | 53 | 4 | 10.0 | 15.0 | 0.00 | 0.00 | 0.00 | 38 | 1023.9 |
| 20260508171430 | 51 | 319 | 6.0 | 9.0 | 0.00 | 0.00 | 0.00 | 39 | 1024.0 |
| 20260508170927 | 51 | 344 | 11.0 | 15.0 | 0.00 | 0.00 | 0.00 | 39 | 1024.1 |
| 20260508170425 | 52 | 314 | 6.0 | 13.0 | 0.00 | 0.00 | 0.00 | 38 | 1023.9 |
| 20260508165921 | 52 | 340 | 7.0 | 11.0 | 0.00 | 0.00 | 0.00 | 40 | 1023.7 |
| 20260508165419 | 52 | 328 | 6.0 | 9.0 | 0.00 | 0.00 | 0.00 | 40 | 1023.6 |
| 20260508164915 | 50 | 353 | 6.0 | 17.0 | 0.00 | 0.00 | 0.00 | 42 | 1023.9 |
| 20260508164412 | 51 | 357 | 10.0 | 14.0 | 0.00 | 0.00 | 0.00 | 42 | 1023.7 |
| 20260508163909 | 50 | 321 | 9.0 | 13.0 | 0.00 | 0.00 | 0.00 | 41 | 1023.9 |
| 20260508163407 | 50 | 9 | 8.0 | 11.0 | 0.00 | 0.00 | 0.00 | 43 | 1024.1 |
| 20260508162902 | 50 | 15 | 7.0 | 10.0 | 0.00 | 0.00 | 0.00 | 45 | 1023.7 |
| 20260508162400 | 49 | 7 | 6.0 | 9.0 | 0.00 | 0.00 | 0.00 | 44 | 1024.0 |
| 20260508161857 | 49 | 312 | 9.0 | 13.0 | 0.00 | 0.00 | 0.00 | 47 | 1023.9 |
| 20260508161354 | 49 | 261 | 3.0 | 8.0 | 0.00 | 0.00 | 0.00 | 50 | 1023.9 |
| 20260508160851 | 48 | 319 | 3.0 | 7.0 | 0.00 | 0.00 | 0.00 | 49 | 1023.9 |
| 20260508160350 | 48 | 306 | 6.0 | 8.0 | 0.00 | 0.00 | 0.00 | 50 | 1023.9 |
| 20260508155845 | 47 | 333 | 9.0 | 13.0 | 0.00 | 0.00 | 0.00 | 51 | 1023.7 |
| 20260508155343 | 47 | 336 | 4.0 | 10.0 | 0.00 | 0.00 | 0.00 | 56 | 1023.7 |
| 20260508154840 | 47 | 315 | 4.0 | 7.0 | 0.00 | 0.00 | 0.00 | 55 | 1023.7 |
| 20260508154337 | 46 | 308 | 9.0 | 10.0 | 0.00 | 0.00 | 0.00 | 53 | 1023.9 |
| 20260508153833 | 45 | 301 | 4.0 | 9.0 | 0.00 | 0.00 | 0.00 | 55 | 1023.9 |
| 20260508153331 | 45 | 39 | 2.0 | 6.0 | 0.00 | 0.00 | 0.00 | 63 | 1024.0 |
| 20260508152827 | 44 | 314 | 3.0 | 7.0 | 0.00 | 0.00 | 0.00 | 62 | 1024.0 |
| 20260508152324 | 44 | 280 | 6.0 | 9.0 | 0.00 | 0.00 | 0.00 | 62 | 1023.9 |
| 20260508151820 | 45 | 315 | 1.0 | 6.0 | 0.00 | 0.00 | 0.00 | 59 | 1023.9 |
| 20260508151317 | 46 | 277 | 2.0 | 8.0 | 0.00 | 0.00 | 0.00 | 57 | 1023.9 |